Change the Weather History Date:

Thursday, October 31, 2013

  Actual Average Record
Temperature  
Mean Temperature 53 °F -  
Max Temperature 62 °F 55 °F 80 °F (1950)
Min Temperature 44 °F 41 °F 26 °F (1954)
Degree Days  
Heating Degree Days 12    
Growing Degree Days 3 (Base 50)    
Moisture  
Dew Point 52 °F    
Average Humidity 91    
Maximum Humidity 100    
Minimum Humidity 82    
Precipitation  
Precipitation 0.09 in - - ()
Sea Level Pressure  
Sea Level Pressure 29.49 in    
Wind  
Wind Speed 5 mph (SSW)    
Max Wind Speed 21 mph    
Max Gust Speed 29 mph    
Visibility 5 miles    
Events Rain    
Averages and records for this station are not official NWS values.
T = Trace of Precipitation, MM = Missing Value Source: NWS Daily Summary

Daily Weather History Graph

Daily Weather History Graph

Search for Another Location

Airport or City:

Trip Planner

Search our weather history database for the weather conditions in past years. The results will help you decide how hot, cold, wet, or windy it might be!

Date:

Astronomy

Oct. 31, 2013 Rise Set
Actual Time 7:25 AM CDT 5:44 PM CDT
Civil Twilight 6:56 AM CDT 6:14 PM CDT
Nautical Twilight 6:22 AM CDT 6:47 PM CDT
Astronomical Twilight 5:49 AM CDT 7:20 PM CDT
Moon 4:10 AM CDT (10/31) 4:06 PM CDT (10/31)
Length of Visible Light 11h 18m
Length of Day
10h 19m
Waning Crescent, 10% of the Moon is Illuminated
Oct 31
Waning Crescent
Nov 3
New
Nov 9
First Quarter
Nov 17
Full
Nov 25
Last Quarter

Hourly Weather History & Observations

Time (CDT) Temp. Windchill Dew Point Humidity Pressure Visibility Wind Dir Wind Speed Gust Speed Precip Events Conditions
12:15 AM 50.0 °F - 50.0 °F 100% 29.76 in 1.2 mi Calm Calm - N/A   Overcast
12:35 AM 50.0 °F - 50.0 °F 100% 29.75 in 1.0 mi NW 3.5 mph - N/A   Overcast
12:55 AM 51.8 °F - 50.0 °F 94% 29.73 in 1.5 mi Calm Calm - N/A   Overcast
1:15 AM 51.8 °F - 50.0 °F 94% 29.72 in 0.8 mi Calm Calm - N/A   Overcast
1:35 AM 51.8 °F - 50.0 °F 94% 29.71 in 1.0 mi Calm Calm - N/A   Overcast
1:55 AM 51.8 °F - 50.0 °F 94% 29.69 in 1.2 mi Calm Calm - N/A   Overcast
2:15 AM 53.6 °F - 51.8 °F 94% 29.68 in 1.8 mi South 3.5 mph - N/A   Overcast
2:35 AM 55.4 °F - 53.6 °F 94% 29.66 in 2.0 mi SSE 4.6 mph - N/A   Overcast
2:55 AM 55.4 °F - 53.6 °F 94% 29.66 in 2.5 mi Calm Calm - N/A   Overcast
3:15 AM 55.4 °F - 53.6 °F 94% 29.64 in 1.8 mi Calm Calm - N/A   Overcast
3:35 AM 55.4 °F - 53.6 °F 94% 29.63 in 2.5 mi Calm Calm - N/A   Overcast
3:55 AM 55.4 °F - 53.6 °F 94% 29.64 in 1.8 mi Calm Calm - N/A   Overcast
4:15 AM 55.4 °F - 53.6 °F 94% 29.63 in 1.8 mi SSE 5.8 mph - N/A   Overcast
4:35 AM 55.4 °F - 55.4 °F 100% 29.62 in 2.0 mi SSE 4.6 mph - N/A   Overcast
4:55 AM 55.4 °F - 55.4 °F 100% 29.62 in 2.5 mi South 3.5 mph - N/A   Light Drizzle
5:15 AM 55.4 °F - 55.4 °F 100% 29.62 in 3.0 mi South 3.5 mph - N/A   Drizzle
5:35 AM 55.4 °F - 55.4 °F 100% 29.58 in 4.0 mi SSE 9.2 mph - N/A   Overcast
5:55 AM 57.2 °F - 55.4 °F 94% 29.59 in 5.0 mi SSW 5.8 mph - N/A   Mostly Cloudy
6:15 AM 57.2 °F - 55.4 °F 94% 29.58 in 5.0 mi South 6.9 mph - N/A   Overcast
6:35 AM 59.0 °F - 55.4 °F 88% 29.58 in 4.0 mi South 8.1 mph - 0.03 in Rain Heavy Rain
6:50 AM 59.0 °F - 57.2 °F 94% 29.57 in 3.0 mi South 9.2 mph - N/A Rain Rain
6:55 AM 59.0 °F - 55.4 °F 88% 29.57 in 5.0 mi South 8.1 mph - 0.09 in Rain Light Rain
7:45 AM 62.6 °F - 57.2 °F 82% 29.55 in 7.0 mi South 8.1 mph - N/A   Overcast
8:45 AM 60.8 °F - 57.2 °F 88% 29.54 in 7.0 mi South 5.8 mph - N/A Rain Light Rain
9:45 AM 60.8 °F - 57.2 °F 88% 29.51 in 7.0 mi South 8.1 mph - N/A Rain Light Rain
10:45 AM 62.6 °F - 59.0 °F 88% 29.68 in 7.0 mi South 9.2 mph - N/A Rain Rain
11:45 AM 60.8 °F - 59.0 °F 94% 29.43 in 7.0 mi SSE 11.5 mph - N/A Rain Light Rain
12:45 PM 62.6 °F - 57.2 °F 82% 29.41 in 7.0 mi South 9.2 mph - N/A Rain Light Rain
1:45 PM 60.8 °F - 57.2 °F 88% 29.36 in 5.0 mi SSW 4.6 mph - N/A Rain Rain
2:00 PM 60.8 °F - 57.2 °F 88% 29.34 in 5.0 mi South 6.9 mph - N/A Rain Rain
2:45 PM 60.8 °F - 57.2 °F 88% 29.31 in 7.0 mi SW 9.2 mph - N/A Rain Light Rain
3:45 PM 60.8 °F - 57.2 °F 88% 29.28 in 5.0 mi West 4.6 mph - N/A Rain Rain
4:46 PM 57.2 °F - 53.6 °F 88% 29.26 in 10.0 mi West 5.8 mph - N/A Rain Light Rain
5:45 PM 55.4 °F - 53.6 °F 94% 29.22 in 7.0 mi Calm Calm - N/A Rain Light Rain
6:45 PM 57.2 °F - 53.6 °F 88% 29.24 in 10.0 mi West 9.2 mph - N/A Rain Rain
8:45 PM 53.6 °F - 48.2 °F 82% 29.24 in 10.0 mi West 15.0 mph 19.6 mph N/A   Overcast
9:15 PM 50.0 °F - 46.4 °F 87% 29.22 in 10.0 mi West 16.1 mph - N/A Rain Rain
9:35 PM 50.0 °F - 46.4 °F 87% 29.24 in 10.0 mi West 12.7 mph 19.6 mph N/A   Overcast
9:55 PM 50.0 °F - 44.6 °F 82% 29.26 in 10.0 mi West 16.1 mph 24.2 mph N/A   Overcast
10:15 PM 48.2 °F - 44.6 °F 87% 29.25 in 10.0 mi West 18.4 mph 24.2 mph N/A   Overcast
10:35 PM 46.4 °F 40.1 °F 42.8 °F 87% 29.28 in 7.0 mi West 15.0 mph 21.9 mph N/A   Overcast
10:55 PM 46.4 °F 40.1 °F 42.8 °F 87% 29.28 in 10.0 mi West 15.0 mph 21.9 mph N/A   Overcast
11:15 PM 44.6 °F 36.6 °F 41.0 °F 87% 29.29 in 10.0 mi West 19.6 mph 25.3 mph N/A   Overcast
11:35 PM 44.6 °F 37.4 °F 41.0 °F 87% 29.28 in 10.0 mi West 16.1 mph 24.2 mph N/A   Overcast
11:55 PM 44.6 °F 36.4 °F 41.0 °F 87% 29.28 in 10.0 mi WSW 20.7 mph 28.8 mph N/A   Overcast